BEIDOU 17 (C31)

Last updated on Jan. 24, 2021, 6:19 a.m. UTC

1 40549U 15019A   21023.52510351 -.00000171  00000-0  00000-0 0  9998
2 40549  52.7255 318.6657 0036933 189.7808 256.4043  1.00297162 21321
UTC
Height (km)
Latitude
Longitude
Inclination
Orbital Period
UTC large
Height (km)
Speed (km/s)
/
Latitude / Longitude
Inclination (degrees)
Orbital Period (minutes)
Azimuth
Elevation
Range (km)
Doppler Factor
iOS Compass Heading
iOS Angle

Next 30 passes for location: Hong Kong

Rise time Rise Azimuth (degrees) Set time Set Azimuth (degrees) Duration Max altitude (degrees)

No matching passes for this satellites